Radiation Dose at Monitoring Post of Fukushima Daini Nuclear Power Station
Date,Time,MP-1(microSv/h),MP-2(microSv/h),MP-3(microSv/h),MP-4(microSv/h),MP-5(microSv/h),MP-6(microSv/h),MP-7(microSv/h),Wind Direction,Wind Velocity(m/s),Rain
2015/09/04,00:00,0.483,0.279,0.504,0.458,0.446,0.225,0.195,south-southwest,6.9,No
2015/09/04,00:10,0.487,0.279,0.498,0.460,0.454,0.224,0.193,south-southwest,6.7,No
2015/09/04,00:20,0.482,0.277,0.501,0.463,0.449,0.225,0.195,south-southwest,6.8,No
2015/09/04,00:30,0.484,0.279,0.503,0.457,0.448,0.226,0.194,south-southwest,8.4,No
2015/09/04,00:40,0.486,0.279,0.497,0.462,0.451,0.225,0.193,south-southwest,8.4,No
2015/09/04,00:50,0.481,0.278,0.502,0.458,0.445,0.225,0.194,south-southwest,9.1,No
2015/09/04,01:00,0.486,0.279,0.500,0.457,0.452,0.224,0.195,south-southwest,9.7,No
2015/09/04,01:10,0.486,0.276,0.496,0.462,0.448,0.224,0.193,south-southwest,9.9,No
2015/09/04,01:20,0.481,0.281,0.503,0.457,0.448,0.225,0.195,south-southwest,7.8,No
2015/09/04,01:30,0.486,0.279,0.498,0.459,0.452,0.223,0.192,south-southwest,6.9,No
2015/09/04,01:40,0.485,0.277,0.499,0.461,0.447,0.225,0.195,south-southwest,6.5,No
2015/09/04,01:50,0.482,0.280,0.504,0.456,0.450,0.224,0.194,south-southwest,6.7,No
2015/09/04,02:00,0.487,0.278,0.497,0.460,0.450,0.224,0.194,south-southwest,6.7,No
2015/09/04,02:10,0.482,0.279,0.502,0.459,0.446,0.225,0.194,south-southwest,5.7,No
2015/09/04,02:20,0.485,0.279,0.500,0.456,0.452,0.224,0.193,south-southwest,5.3,No
2015/09/04,02:30,0.484,0.277,0.496,0.462,0.448,0.225,0.194,south-southwest,6.2,No
2015/09/04,02:40,0.478,0.280,0.504,0.458,0.447,0.224,0.194,south-southwest,6.2,No
2015/09/04,02:50,0.487,0.278,0.500,0.457,0.451,0.223,0.194,south-southwest,7.0,No
2015/09/04,03:00,0.484,0.278,0.498,0.463,0.446,0.225,0.195,south-southwest,6.9,No
2015/09/04,03:10,0.482,0.280,0.504,0.458,0.450,0.224,0.192,south-southwest,5.2,No
2015/09/04,03:20,0.487,0.276,0.499,0.459,0.451,0.225,0.194,south-southwest,3.7,No
2015/09/04,03:30,0.483,0.279,0.499,0.461,0.445,0.224,0.195,south-southwest,4.1,No
2015/09/04,03:40,0.482,0.279,0.503,0.457,0.452,0.223,0.194,southwest,4.7,No
2015/09/04,03:50,0.488,0.278,0.496,0.462,0.450,0.225,0.195,southwest,3.9,No
2015/09/04,04:00,0.483,0.280,0.501,0.459,0.446,0.224,0.194,west-southwest,2.5,No
2015/09/04,04:10,0.481,0.278,0.502,0.458,0.453,0.224,0.193,west,2.6,No
2015/09/04,04:20,0.487,0.278,0.496,0.462,0.448,0.225,0.195,northwest,2.8,No
2015/09/04,04:30,0.483,0.279,0.502,0.460,0.447,0.223,0.193,north-northwest,2.5,No
2015/09/04,04:40,0.483,0.277,0.502,0.456,0.452,0.224,0.195,north,3.7,No
2015/09/04,04:50,0.487,0.281,0.497,0.461,0.447,0.226,0.194,north-northwest,3.4,No
2015/09/04,05:00,0.484,0.279,0.505,0.461,0.451,0.224,0.193,north-northwest,4.2,No
2015/09/04,05:10,0.484,0.279,0.502,0.457,0.451,0.225,0.195,north-northwest,5.7,No
2015/09/04,05:20,0.488,0.279,0.497,0.463,0.446,0.225,0.193,north-northwest,5.0,No
2015/09/04,05:30,0.482,0.280,0.506,0.460,0.452,0.225,0.194,west-northwest,4.7,No
2015/09/04,05:40,0.487,0.278,0.501,0.457,0.452,0.224,0.195,west-northwest,3.5,No
2015/09/04,05:50,0.487,0.280,0.497,0.463,0.445,0.223,0.194,west-northwest,4.6,No
2015/09/04,06:00,0.482,0.280,0.504,0.461,0.453,0.225,0.194,west-northwest,4.0,No
2015/09/04,06:10,0.488,0.278,0.503,0.457,0.452,0.224,0.195,north-northwest,1.6,No
2015/09/04,06:20,0.487,0.282,0.496,0.463,0.447,0.224,0.193,north-northwest,1.7,No
2015/09/04,06:30,0.482,0.279,0.505,0.461,0.451,0.226,0.194,north,2.0,No
2015/09/04,06:40,0.487,0.280,0.500,0.456,0.452,0.224,0.196,west-northwest,2.3,No
2015/09/04,06:50,0.486,0.281,0.497,0.464,0.445,0.225,0.193,west-northwest,2.7,No
2015/09/04,07:00,0.481,0.279,0.505,0.459,0.449,0.226,0.195,west,4.1,Yes
2015/09/04,07:10,0.487,0.279,0.501,0.456,0.451,0.225,0.195,west,5.6,No
2015/09/04,07:20,0.489,0.280,0.498,0.464,0.447,0.224,0.193,west,4.7,No
2015/09/04,07:30,0.481,0.279,0.502,0.461,0.448,0.226,0.195,west,4.8,No
2015/09/04,07:40,0.482,0.277,0.502,0.456,0.454,0.226,0.194,west,3.4,No
2015/09/04,07:50,0.487,0.281,0.495,0.463,0.448,0.225,0.194,southwest,2.8,No
2015/09/04,08:00,0.482,0.280,0.503,0.462,0.445,0.225,0.193,south,2.7,No
2015/09/04,08:10,0.482,0.278,0.504,0.457,0.452,0.225,0.195,south,2.8,No
2015/09/04,08:20,0.489,0.280,0.497,0.456,0.453,0.224,0.195,south-southwest,3.6,No
2015/09/04,08:30,0.487,0.282,0.500,0.463,0.448,0.226,0.195,south-southwest,3.1,No
2015/09/04,08:40,0.483,0.280,0.504,0.461,0.447,0.225,0.194,south-southwest,2.7,No
2015/09/04,08:50,0.480,0.278,0.501,0.462,0.446,0.226,0.194,south-southwest,2.2,No
2015/09/04,09:00,0.479,0.279,0.500,0.459,0.447,0.226,0.193,southwest,1.7,No
2015/09/04,09:10,0.479,0.279,0.497,0.457,0.448,0.223,0.194,west,1.5,No
2015/09/04,09:20,0.482,0.279,0.500,0.455,0.447,0.225,0.194,west-northwest,3.2,No
2015/09/04,09:30,0.489,0.277,0.504,0.454,0.448,0.224,0.193,west-northwest,1.3,No
2015/09/04,09:40,0.490,0.275,0.501,0.456,0.454,0.224,0.193,west-northwest,1.0,No
2015/09/04,09:50,0.486,0.276,0.497,0.464,0.453,0.225,0.193,west,3.6,No
2015/09/04,10:00,0.483,0.277,0.495,0.464,0.452,0.225,0.192,west-northwest,7.0,No
2015/09/04,10:10,0.483,0.281,0.503,0.461,0.449,0.226,0.192,west-northwest,7.3,No
2015/09/04,10:20,0.490,0.280,0.502,0.457,0.447,0.224,0.193,west,8.1,No
2015/09/04,10:30,0.489,0.278,0.501,0.456,0.449,0.225,0.192,west-northwest,5.9,No
2015/09/04,10:40,0.485,0.279,0.497,0.464,0.455,0.224,0.194,west-northwest,3.7,No
2015/09/04,10:50,0.483,0.277,0.504,0.465,0.454,0.226,0.196,west-northwest,2.3,No
2015/09/04,11:00,0.487,0.279,0.504,0.461,0.450,0.225,0.195,west-northwest,2.4,No
2015/09/04,11:10,0.490,0.282,0.500,0.458,0.447,0.224,0.195,northwest,3.1,No
2015/09/04,11:20,0.487,0.280,0.497,0.459,0.452,0.226,0.193,northwest,4.6,No
2015/09/04,11:30,0.484,0.279,0.507,0.465,0.455,0.225,0.195,northwest,3.0,No
2015/09/04,11:40,0.482,0.277,0.504,0.462,0.453,0.225,0.195,northwest,1.9,No
2015/09/04,11:50,0.490,0.278,0.501,0.459,0.449,0.225,0.195,west-northwest,2.2,No
2015/09/04,12:00,0.490,0.281,0.496,0.457,0.449,0.223,0.194,north-northwest,2.5,No
2015/09/04,12:10,0.485,0.282,0.497,0.458,0.446,0.226,0.194,north-northwest,1.4,No
2015/09/04,12:20,0.483,0.280,0.505,0.465,0.445,0.226,0.193,west-northwest,1.3,No
2015/09/04,12:30,0.486,0.279,0.504,0.463,0.448,0.226,0.193,-,CALM,No
2015/09/04,12:40,0.490,0.278,0.501,0.461,0.446,0.228,0.194,-,CALM,No
2015/09/04,12:50,0.489,0.278,0.500,0.462,0.449,0.226,0.194,east,0.8,No
2015/09/04,13:00,0.487,0.278,0.500,0.460,0.451,0.225,0.195,east-southeast,0.8,No
2015/09/04,13:10,0.486,0.281,0.499,0.461,0.454,0.226,0.195,south-southeast,1.4,No
2015/09/04,13:20,0.483,0.281,0.498,0.461,0.452,0.226,0.194,south-southeast,1.9,No
2015/09/04,13:30,0.483,0.280,0.498,0.459,0.452,0.225,0.194,south-southeast,2.2,No
2015/09/04,13:40,0.483,0.278,0.499,0.459,0.450,0.225,0.194,south,2.8,No
2015/09/04,13:50,0.484,0.279,0.499,0.459,0.448,0.225,0.195,south,4.0,No
2015/09/04,14:00,0.491,0.278,0.503,0.457,0.448,0.225,0.194,south,5.0,No
2015/09/04,14:10,0.491,0.280,0.505,0.459,0.450,0.227,0.194,south,5.0,No
2015/09/04,14:20,0.487,0.279,0.502,0.466,0.449,0.225,0.196,south,6.7,No
2015/09/04,14:30,0.485,0.278,0.500,0.466,0.450,0.225,0.197,south,5.5,No
2015/09/04,14:40,0.483,0.279,0.499,0.463,0.450,0.225,0.197,south,4.0,No
2015/09/04,14:50,0.488,0.278,0.500,0.462,0.450,0.227,0.196,south,4.5,No
2015/09/04,15:00,0.493,0.279,0.499,0.461,0.450,0.227,0.195,south,4.8,No
2015/09/04,15:10,0.489,0.279,0.499,0.459,0.452,0.228,0.195,south-southwest,4.4,No
2015/09/04,15:20,0.486,0.278,0.498,0.461,0.451,0.227,0.194,south,3.2,No
2015/09/04,15:30,0.486,0.279,0.500,0.461,0.454,0.228,0.195,south,4.2,No
2015/09/04,15:40,0.483,0.278,0.502,0.467,0.453,0.228,0.195,south,5.0,No
2015/09/04,15:50,0.483,0.279,0.508,0.465,0.453,0.229,0.197,south-southwest,3.7,No
2015/09/04,16:00,0.490,0.284,0.507,0.462,0.452,0.228,0.196,southwest,1.4,No
2015/09/04,16:10,0.492,0.282,0.503,0.460,0.453,0.227,0.195,west-southwest,1.4,No
2015/09/04,16:20,0.488,0.282,0.502,0.460,0.452,0.227,0.194,west-southwest,1.6,No
2015/09/04,16:30,0.484,0.281,0.498,0.464,0.452,0.227,0.194,southwest,1.3,No
2015/09/04,16:40,0.485,0.281,0.504,0.467,0.453,0.227,0.197,west,0.9,No
2015/09/04,16:50,0.491,0.282,0.504,0.466,0.453,0.226,0.196,west,0.8,No
2015/09/04,17:00,0.492,0.282,0.506,0.462,0.451,0.226,0.196,west-southwest,0.6,No
2015/09/04,17:10,0.487,0.282,0.501,0.460,0.450,0.228,0.195,west,3.0,No
2015/09/04,17:20,0.485,0.279,0.500,0.465,0.451,0.226,0.197,west-northwest,3.0,No
2015/09/04,17:30,0.489,0.282,0.507,0.465,0.449,0.225,0.196,west-northwest,2.6,No
2015/09/04,17:40,0.493,0.283,0.506,0.461,0.450,0.227,0.194,west,3.9,No
2015/09/04,17:50,0.486,0.281,0.503,0.461,0.457,0.227,0.196,west,2.6,No
2015/09/04,18:00,0.486,0.281,0.501,0.466,0.455,0.226,0.197,west,4.0,No
2015/09/04,18:10,0.495,0.283,0.510,0.464,0.451,0.227,0.195,west,2.2,No
2015/09/04,18:20,0.490,0.279,0.506,0.461,0.454,0.228,0.196,northwest,1.6,No
2015/09/04,18:30,0.484,0.283,0.500,0.467,0.457,0.225,0.196,northwest,1.3,No
2015/09/04,18:40,0.492,0.282,0.508,0.466,0.451,0.227,0.195,north-northwest,2.5,No
2015/09/04,18:50,0.487,0.280,0.508,0.460,0.451,0.226,0.197,north-northwest,1.0,No
2015/09/04,19:00,0.487,0.282,0.501,0.466,0.457,0.227,0.195,north,1.5,No
2015/09/04,19:10,0.493,0.280,0.505,0.468,0.452,0.226,0.196,northeast,1.6,No
2015/09/04,19:20,0.489,0.280,0.509,0.461,0.451,0.226,0.197,northeast,2.2,No
2015/09/04,19:30,0.486,0.283,0.504,0.464,0.457,0.227,0.195,north,2.6,No
2015/09/04,19:40,0.493,0.279,0.504,0.466,0.454,0.226,0.197,north-northwest,1.9,No
2015/09/04,19:50,0.488,0.283,0.509,0.461,0.452,0.228,0.197,north,2.2,No
2015/09/04,20:00,0.487,0.282,0.503,0.466,0.457,0.225,0.197,west-northwest,2.0,No
2015/09/04,20:10,0.493,0.280,0.502,0.466,0.454,0.226,0.196,west,2.5,No
2015/09/04,20:20,0.486,0.282,0.510,0.460,0.448,0.226,0.195,northwest,2.2,No
2015/09/04,20:30,0.490,0.281,0.505,0.465,0.455,0.225,0.196,northwest,4.0,No
2015/09/04,20:40,0.492,0.280,0.503,0.465,0.454,0.227,0.196,west-northwest,4.7,No
2015/09/04,20:50,0.487,0.283,0.507,0.459,0.449,0.225,0.196,northwest,4.3,No
2015/09/04,21:00,0.490,0.281,0.504,0.468,0.456,0.226,0.196,northwest,3.1,No
2015/09/04,21:10,0.492,0.281,0.503,0.466,0.454,0.227,0.196,northwest,4.7,No
2015/09/04,21:20,0.487,0.283,0.509,0.460,0.448,0.226,0.196,north-northwest,5.9,No
2015/09/04,21:30,0.488,0.278,0.504,0.466,0.454,0.227,0.196,north-northwest,4.7,No
2015/09/04,21:40,0.490,0.281,0.501,0.465,0.454,0.225,0.196,north-northwest,4.3,No
2015/09/04,21:50,0.488,0.281,0.509,0.460,0.449,0.228,0.197,north-northwest,5.0,No
2015/09/04,22:00,0.490,0.281,0.503,0.467,0.456,0.227,0.196,north-northwest,4.5,No
2015/09/04,22:10,0.491,0.282,0.503,0.466,0.455,0.227,0.196,north,3.9,No
2015/09/04,22:20,0.487,0.281,0.508,0.460,0.451,0.227,0.196,north-northwest,4.1,No
2015/09/04,22:30,0.488,0.279,0.504,0.467,0.455,0.225,0.195,north-northwest,4.3,No
2015/09/04,22:40,0.492,0.284,0.500,0.465,0.456,0.226,0.197,north,4.0,No
2015/09/04,22:50,0.488,0.281,0.507,0.460,0.450,0.226,0.196,north,3.9,No
2015/09/04,23:00,0.488,0.281,0.504,0.464,0.451,0.227,0.195,north,4.5,No
2015/09/04,23:10,0.495,0.284,0.502,0.464,0.456,0.227,0.198,north-northwest,5.0,No
2015/09/04,23:20,0.488,0.281,0.508,0.462,0.451,0.226,0.196,north-northwest,4.5,No
2015/09/04,23:30,0.487,0.281,0.505,0.464,0.451,0.227,0.195,north-northwest,3.2,No
2015/09/04,23:40,0.493,0.282,0.501,0.467,0.455,0.226,0.198,north-northwest,3.7,No
2015/09/04,23:50,0.489,0.281,0.508,0.460,0.452,0.226,0.195,north,3.9,No
